Regional Weather Roundup
Issued by NWS

Home | Current Version | Previous Version | Text Only | Print | Product List | Glossary Off
Versions: 1 2 3 4 5 6 7 8 9 10 11 12 13 14 15 16 17 18 19 20 21 22 23 24 25 26 27 28 29 30 31 32 33 34 35 36 37 38 39 40 41 42 43 44 45 46 47 48 49 50

000
ASUS45 KSLC 301010
RWRUT

UTAH REGIONAL WEATHER ROUNDUP
NATIONAL WEATHER SERVICE SALT LAKE CITY UT
400 AM MDT SUN APR 30 2017

UTZ001>011-023>025-301100-

NORTHERN UTAH

CITY           SKY/WX    TMP DP  RH WIND       PRES   REMARKS
BRIGHAM CITY   CLEAR     41  31  67 CALM      30.19R
HILL AFB       CLEAR     38  25  59 E13       30.18F WCI  30
LOGAN          CLEAR     38  32  79 N3        30.18S
OGDEN          CLEAR     37  27  67 S8        30.17F WCI  31
SALT LAKE CITY CLEAR     40  31  70 SE7       30.18F
TOOELE VALLEY  CLEAR     37  30  75 S10       30.17F WCI  30
WENDOVER       CLEAR     42  30  62 CALM      30.18S
WEST JORDAN    CLEAR     40  34  77 SW6       30.18F

$$

UTZ011>015-024>027-301100-

CENTRAL/NORTHEAST UTAH

CITY           SKY/WX    TMP DP  RH WIND       PRES   REMARKS
PROVO AIRPORT  CLEAR     35  26  69 E8        30.21S WCI  29
MOAB/CANYONLAN CLEAR     34  15  46 CALM      30.16S
DELTA          CLEAR     30  21  69 S7        30.20S WCI  23
PRICE          CLEAR     32  17  54 N5        30.18S WCI  27
RICHFIELD      CLEAR     27  23  86 CALM      30.24S
ROOSEVELT      CLEAR     30  21  69 W5        30.20S WCI  25
VERNAL         CLEAR     27  18  69 CALM      30.19R

$$

UTZ013>016-019>022-027-301100-

SOUTHERN UTAH

CITY           SKY/WX    TMP DP  RH WIND       PRES   REMARKS
BRYCE CANYON   CLEAR     18  12  77 W5        30.22F WCI  11
CEDAR CITY     CLEAR     29  17  61 SE3       30.20S
MILFORD        CLEAR     29  19  66 SW5       30.21S WCI  24
ST GEORGE      SUNNY     50  20  30 CALM      30.17R
HANKSVILLE     CLEAR     39  18  41 NW3       30.20R
KANAB          CLEAR     34  19  55 CALM      30.23S
BLANDING       CLEAR     32  15  49 W7        30.19F WCI  26

$$

REGIONAL REPORTS     COLORADO/ARIZONA

CITY           SKY/WX    TMP DP  RH WIND       PRES   REMARKS
CRAIG, CO      CLEAR     21  16  81 CALM      30.18R
GRAND JUNCTION CLEAR     29  16  58 NE5       30.17R WCI  24
RIFLE, CO      CLEAR     31  20  63 CALM      30.17R
MONTROSE, CO   CLEAR     30  24  78 E6        30.18R WCI  24
CORTEZ, CO     CLEAR     32  20  61 NW7       30.11R WCI  26
COLORADO CITY    N/A     32  19  59 SE3       30.22S
PAGE, AZ       CLEAR     50  19  29 NW6       30.15S
GRAND CANYON   CLEAR     24  12  60 NE6       30.21S WCI  17
KINGMAN, AZ    CLEAR     43  17  35 CALM      30.15R
FLAGSTAFF, AZ  CLEAR     28  12  51 CALM      30.19S

$$

REGIONAL REPORTS    NEVADA/IDAHO/WYOMING

CITY           SKY/WX    TMP DP  RH WIND       PRES   REMARKS
LAS VEGAS, NV  PTCLDY    63  16  16 E3        30.12R
ELY, NY        CLEAR     25  18  74 S12       30.23F WCI  14
ELKO, NV       CLEAR     34  26  72 CALM      30.21R
POCATELLO, ID  CLOUDY    42  24  49 SW8       30.15S
BURLEY, ID     CLOUDY    43  27  53 SW10      30.13F
FORT BRIDGER,    N/A     32  21  64 W13       30.20F WCI  22
EVANSTON, WY   CLEAR     27  20  75 S7        30.18F WCI  19
ROCK SPRINGS,  CLEAR     27  20  75 SW8       30.16S WCI  19
KEMMERER, WY     N/A     27  23  86 NW7       30.18S WCI  19

$$



USA.gov is the U.S. government's official web portal to all federal, state and local government web resources and services.